Year,Month,Day,Hour,Minute,Value (Times are PST for temperature in C)
2014,07,13,00,00,22.00
2014,07,13,00,01,22.00
2014,07,13,00,02,22.00
2014,07,13,00,03,22.00
2014,07,13,00,04,22.00
2014,07,13,00,05,21.90
2014,07,13,00,06,21.90
2014,07,13,00,07,22.00
2014,07,13,00,08,21.90
2014,07,13,00,09,21.90
2014,07,13,00,10,21.90
2014,07,13,00,11,21.90
2014,07,13,00,12,21.90
2014,07,13,00,13,21.90
2014,07,13,00,14,21.90
2014,07,13,00,15,21.90
2014,07,13,00,16,22.00
2014,07,13,00,17,22.00
2014,07,13,00,18,22.10
2014,07,13,00,19,22.10
2014,07,13,00,20,22.10
2014,07,13,00,21,22.10
2014,07,13,00,22,22.10
2014,07,13,00,23,22.10
2014,07,13,00,24,22.10
2014,07,13,00,25,22.10
2014,07,13,00,26,22.10
2014,07,13,00,27,22.00
2014,07,13,00,28,22.00
2014,07,13,00,29,22.00
2014,07,13,00,30,21.90
2014,07,13,00,31,21.90
2014,07,13,00,32,21.90
2014,07,13,00,33,21.80
2014,07,13,00,34,21.80
2014,07,13,00,35,21.80
2014,07,13,00,36,21.70
2014,07,13,00,37,21.70
2014,07,13,00,38,21.60
2014,07,13,00,39,21.60
2014,07,13,00,40,21.60
2014,07,13,00,41,21.50
2014,07,13,00,42,21.40
2014,07,13,00,43,21.40
2014,07,13,00,44,21.30
2014,07,13,00,45,21.30
2014,07,13,00,46,21.30
2014,07,13,00,47,21.20
2014,07,13,00,48,21.20
2014,07,13,00,49,21.20
2014,07,13,00,50,21.10
2014,07,13,00,51,21.10
2014,07,13,00,52,21.10
2014,07,13,00,53,21.10
2014,07,13,00,54,21.10
2014,07,13,00,55,21.10
2014,07,13,00,56,21.10
2014,07,13,00,57,21.00
2014,07,13,00,58,21.00
2014,07,13,00,59,21.00
2014,07,13,01,00,21.00
2014,07,13,01,01,21.00
2014,07,13,01,02,20.90
2014,07,13,01,03,20.90
2014,07,13,01,04,20.90
2014,07,13,01,05,20.90
2014,07,13,01,06,20.90
2014,07,13,01,07,20.90
2014,07,13,01,08,20.90
2014,07,13,01,09,20.80
2014,07,13,01,10,20.80
2014,07,13,01,11,20.80
2014,07,13,01,12,20.80
2014,07,13,01,13,20.80
2014,07,13,01,14,20.80
2014,07,13,01,15,20.80
2014,07,13,01,16,20.80
2014,07,13,01,17,20.70
2014,07,13,01,18,20.70
2014,07,13,01,19,20.70
2014,07,13,01,20,20.70
2014,07,13,01,21,20.60
2014,07,13,01,22,20.60
2014,07,13,01,23,20.60
2014,07,13,01,24,20.60
2014,07,13,01,25,20.60
2014,07,13,01,26,20.50
2014,07,13,01,27,20.50
2014,07,13,01,28,20.50
2014,07,13,01,29,20.50
2014,07,13,01,30,20.50
2014,07,13,01,31,20.50
2014,07,13,01,32,20.50
2014,07,13,01,33,20.50
2014,07,13,01,34,20.50
2014,07,13,01,35,20.50
2014,07,13,01,36,20.40
2014,07,13,01,37,20.40
2014,07,13,01,38,20.40
2014,07,13,01,39,20.30
2014,07,13,01,40,20.20
2014,07,13,01,41,20.20
2014,07,13,01,42,20.20
2014,07,13,01,43,20.10
2014,07,13,01,44,20.10
2014,07,13,01,45,20.10
2014,07,13,01,46,20.10
2014,07,13,01,47,20.10
2014,07,13,01,48,20.10
2014,07,13,01,49,20.10
2014,07,13,01,50,20.10
2014,07,13,01,51,20.10
2014,07,13,01,52,20.10
2014,07,13,01,53,20.10
2014,07,13,01,54,20.10
2014,07,13,01,55,20.10
2014,07,13,01,56,20.10
2014,07,13,01,57,20.10
2014,07,13,01,58,20.10
2014,07,13,01,59,20.10
2014,07,13,02,00,20.10
2014,07,13,02,01,20.10
2014,07,13,02,02,20.10
2014,07,13,02,03,20.10
2014,07,13,02,04,20.10
2014,07,13,02,05,20.10
2014,07,13,02,06,20.10
2014,07,13,02,07,20.10
2014,07,13,02,08,20.10
2014,07,13,02,09,20.00
2014,07,13,02,10,20.00
2014,07,13,02,11,19.90
2014,07,13,02,12,19.90
2014,07,13,02,13,19.80
2014,07,13,02,14,19.80
2014,07,13,02,15,19.80
2014,07,13,02,16,19.80
2014,07,13,02,17,19.70
2014,07,13,02,18,19.70
2014,07,13,02,19,19.70
2014,07,13,02,20,19.70
2014,07,13,02,21,19.70
2014,07,13,02,22,19.70
2014,07,13,02,23,19.60
2014,07,13,02,24,19.60
2014,07,13,02,25,19.60
2014,07,13,02,26,19.60
2014,07,13,02,27,19.50
2014,07,13,02,28,19.50
2014,07,13,02,29,19.40
2014,07,13,02,30,19.40
2014,07,13,02,31,19.40
2014,07,13,02,32,19.30
2014,07,13,02,33,19.30
2014,07,13,02,34,19.30
2014,07,13,02,35,19.20
2014,07,13,02,36,19.20
2014,07,13,02,37,19.20
2014,07,13,02,38,19.20
2014,07,13,02,39,19.20
2014,07,13,02,40,19.20
2014,07,13,02,41,19.30
2014,07,13,02,42,19.20
2014,07,13,02,43,19.20
2014,07,13,02,44,19.20
2014,07,13,02,45,19.20
2014,07,13,02,46,19.10
2014,07,13,02,47,19.10
2014,07,13,02,48,19.10
2014,07,13,02,49,19.10
2014,07,13,02,50,19.10
2014,07,13,02,51,19.10
2014,07,13,02,52,19.10
2014,07,13,02,53,19.20
2014,07,13,02,54,19.20
2014,07,13,02,55,19.20
2014,07,13,02,56,19.20
2014,07,13,02,57,19.30
2014,07,13,02,58,19.30
2014,07,13,02,59,19.30
2014,07,13,03,00,19.40
2014,07,13,03,01,19.40
2014,07,13,03,02,19.40
2014,07,13,03,03,19.40
2014,07,13,03,04,19.40
2014,07,13,03,05,19.40
2014,07,13,03,06,19.40
2014,07,13,03,07,19.40
2014,07,13,03,08,19.40
2014,07,13,03,09,19.30
2014,07,13,03,10,19.30
2014,07,13,03,11,19.30
2014,07,13,03,12,19.30
2014,07,13,03,13,19.30
2014,07,13,03,14,19.30
2014,07,13,03,15,19.30
2014,07,13,03,16,19.30
2014,07,13,03,17,19.30
2014,07,13,03,18,19.30
2014,07,13,03,19,19.30
2014,07,13,03,20,19.30
2014,07,13,03,21,19.30
2014,07,13,03,22,19.30
2014,07,13,03,23,19.30
2014,07,13,03,24,19.30
2014,07,13,03,25,19.30
2014,07,13,03,26,19.30
2014,07,13,03,27,19.30
2014,07,13,03,28,19.30
2014,07,13,03,29,19.30
2014,07,13,03,30,19.20
2014,07,13,03,31,19.20
2014,07,13,03,32,19.20
2014,07,13,03,33,19.20
2014,07,13,03,34,19.20
2014,07,13,03,35,19.20
2014,07,13,03,36,19.20
2014,07,13,03,37,19.20
2014,07,13,03,38,19.20
2014,07,13,03,39,19.20
2014,07,13,03,40,19.10
2014,07,13,03,41,19.10
2014,07,13,03,42,19.10
2014,07,13,03,43,19.10
2014,07,13,03,44,19.10
2014,07,13,03,45,19.00
2014,07,13,03,46,19.00
2014,07,13,03,47,19.00
2014,07,13,03,48,19.10
2014,07,13,03,49,19.10
2014,07,13,03,50,19.20
2014,07,13,03,51,19.20
2014,07,13,03,52,19.20
2014,07,13,03,53,19.20
2014,07,13,03,54,19.20
2014,07,13,03,55,19.20
2014,07,13,03,56,19.20
2014,07,13,03,57,19.20
2014,07,13,03,58,19.30
2014,07,13,03,59,19.30
2014,07,13,04,00,19.30
2014,07,13,04,01,19.40
2014,07,13,04,02,19.40
2014,07,13,04,03,19.40
2014,07,13,04,04,19.40
2014,07,13,04,05,19.40
2014,07,13,04,06,19.40
2014,07,13,04,07,19.40
2014,07,13,04,08,19.40
2014,07,13,04,09,19.40
2014,07,13,04,10,19.40
2014,07,13,04,11,19.30
2014,07,13,04,12,19.30
2014,07,13,04,13,19.20
2014,07,13,04,14,19.20
2014,07,13,04,15,19.10
2014,07,13,04,16,19.10
2014,07,13,04,17,19.00
2014,07,13,04,18,18.90
2014,07,13,04,19,18.90
2014,07,13,04,20,18.80
2014,07,13,04,21,18.80
2014,07,13,04,22,18.80
2014,07,13,04,23,18.80
2014,07,13,04,24,18.80
2014,07,13,04,25,18.70
2014,07,13,04,26,18.80
2014,07,13,04,27,18.80
2014,07,13,04,28,18.80
2014,07,13,04,29,18.80
2014,07,13,04,30,18.90
2014,07,13,04,31,18.90
2014,07,13,04,32,18.90
2014,07,13,04,33,19.00
2014,07,13,04,34,19.00
2014,07,13,04,35,19.00
2014,07,13,04,36,19.00
2014,07,13,04,37,19.00
2014,07,13,04,38,19.00
2014,07,13,04,39,19.00
2014,07,13,04,40,18.90
2014,07,13,04,41,18.90
2014,07,13,04,42,18.90
2014,07,13,04,43,18.90
2014,07,13,04,44,18.80
2014,07,13,04,45,18.80
2014,07,13,04,46,18.80
2014,07,13,04,47,18.70
2014,07,13,04,48,18.70
2014,07,13,04,49,18.60
2014,07,13,04,50,18.60
2014,07,13,04,51,18.60
2014,07,13,04,52,18.60
2014,07,13,04,53,18.60
2014,07,13,04,54,18.60
2014,07,13,04,55,18.60
2014,07,13,04,56,18.60
2014,07,13,04,57,18.70
2014,07,13,04,58,18.70
2014,07,13,04,59,18.70
2014,07,13,05,00,18.80
2014,07,13,05,01,18.70
2014,07,13,05,02,18.70
2014,07,13,05,03,18.70
2014,07,13,05,04,18.60
2014,07,13,05,05,18.50
2014,07,13,05,06,18.40
2014,07,13,05,07,18.40
2014,07,13,05,08,18.30
2014,07,13,05,09,18.30
2014,07,13,05,10,18.20
2014,07,13,05,11,18.20
2014,07,13,05,12,18.20
2014,07,13,05,13,18.20
2014,07,13,05,14,18.20
2014,07,13,05,15,18.20
2014,07,13,05,16,18.20
2014,07,13,05,17,18.20
2014,07,13,05,18,18.20
2014,07,13,05,19,18.20
2014,07,13,05,20,18.20
2014,07,13,05,21,18.20
2014,07,13,05,22,18.30
2014,07,13,05,23,18.30
2014,07,13,05,24,18.30
2014,07,13,05,25,18.30
2014,07,13,05,26,18.30
2014,07,13,05,27,18.30
2014,07,13,05,28,18.40
2014,07,13,05,29,18.40
2014,07,13,05,30,18.40
2014,07,13,05,31,18.40
2014,07,13,05,32,18.40
2014,07,13,05,33,18.40
2014,07,13,05,34,18.50
2014,07,13,05,35,18.50
2014,07,13,05,36,18.50
2014,07,13,05,37,18.50
2014,07,13,05,38,18.40
2014,07,13,05,39,18.40
2014,07,13,05,40,18.40
2014,07,13,05,41,18.40
2014,07,13,05,42,18.40
2014,07,13,05,43,18.40
2014,07,13,05,44,18.30
2014,07,13,05,45,18.30
2014,07,13,05,46,18.20
2014,07,13,05,47,18.20
2014,07,13,05,48,18.10
2014,07,13,05,49,18.10
2014,07,13,05,50,18.10
2014,07,13,05,51,18.10
2014,07,13,05,52,18.00
2014,07,13,05,53,18.00
2014,07,13,05,54,18.10
2014,07,13,05,55,18.00
2014,07,13,05,56,18.10
2014,07,13,05,57,18.10
2014,07,13,05,58,18.10
2014,07,13,05,59,18.10
2014,07,13,06,00,18.10
2014,07,13,06,01,18.10
2014,07,13,06,02,18.10
2014,07,13,06,03,18.20
2014,07,13,06,04,18.20
2014,07,13,06,05,18.20
2014,07,13,06,06,18.30
2014,07,13,06,07,18.30
2014,07,13,06,08,18.30
2014,07,13,06,09,18.30
2014,07,13,06,10,18.30
2014,07,13,06,11,18.40
2014,07,13,06,12,18.40
2014,07,13,06,13,18.40
2014,07,13,06,14,18.50
2014,07,13,06,15,18.50
2014,07,13,06,16,18.50
2014,07,13,06,17,18.60
2014,07,13,06,18,18.70
2014,07,13,06,19,18.70
2014,07,13,06,20,18.70
2014,07,13,06,21,18.80
2014,07,13,06,22,18.80
2014,07,13,06,23,18.80
2014,07,13,06,24,18.80
2014,07,13,06,25,18.80
2014,07,13,06,26,18.80
2014,07,13,06,27,18.80
2014,07,13,06,28,18.70
2014,07,13,06,29,18.70
2014,07,13,06,30,18.70
2014,07,13,06,31,18.80
2014,07,13,06,32,18.80
2014,07,13,06,33,18.80
2014,07,13,06,34,18.80
2014,07,13,06,35,18.90
2014,07,13,06,36,18.90
2014,07,13,06,37,19.00
2014,07,13,06,38,19.10
2014,07,13,06,39,19.20
2014,07,13,06,40,19.40
2014,07,13,06,41,19.50
2014,07,13,06,42,19.70
2014,07,13,06,43,19.90
2014,07,13,06,44,20.00
2014,07,13,06,45,20.20
2014,07,13,06,46,20.30
2014,07,13,06,47,20.50
2014,07,13,06,48,20.70
2014,07,13,06,49,20.80
2014,07,13,06,50,20.90
2014,07,13,06,51,21.10
2014,07,13,06,52,21.20
2014,07,13,06,53,21.30
2014,07,13,06,54,21.40
2014,07,13,06,55,21.50
2014,07,13,06,56,21.50
2014,07,13,06,57,21.50
2014,07,13,06,58,21.60
2014,07,13,06,59,21.60
2014,07,13,07,00,21.50
2014,07,13,07,01,21.50
2014,07,13,07,02,21.50
2014,07,13,07,03,21.50
2014,07,13,07,04,21.50
2014,07,13,07,05,21.50
2014,07,13,07,06,21.50
2014,07,13,07,07,21.50
2014,07,13,07,08,21.60
2014,07,13,07,09,21.60
2014,07,13,07,10,21.60
2014,07,13,07,11,21.70
2014,07,13,07,12,21.70
2014,07,13,07,13,21.80
2014,07,13,07,14,21.80
2014,07,13,07,15,21.90
2014,07,13,07,16,22.00
2014,07,13,07,17,22.10
2014,07,13,07,18,22.20
2014,07,13,07,19,22.30
2014,07,13,07,20,22.40
2014,07,13,07,21,22.40
2014,07,13,07,22,22.60
2014,07,13,07,23,22.70
2014,07,13,07,24,22.80
2014,07,13,07,25,22.90
2014,07,13,07,26,22.90
2014,07,13,07,27,23.00
2014,07,13,07,28,23.10
2014,07,13,07,29,23.10
2014,07,13,07,30,23.20
2014,07,13,07,31,23.20
2014,07,13,07,32,23.30
2014,07,13,07,33,23.30
2014,07,13,07,34,23.30
2014,07,13,07,35,23.40
2014,07,13,07,36,23.40
2014,07,13,07,37,23.40
2014,07,13,07,38,23.50
2014,07,13,07,39,23.50
2014,07,13,07,40,23.60
2014,07,13,07,41,23.60
2014,07,13,07,42,23.70
2014,07,13,07,43,23.70
2014,07,13,07,44,23.80
2014,07,13,07,45,23.80
2014,07,13,07,46,23.80
2014,07,13,07,47,23.90
2014,07,13,07,48,23.90
2014,07,13,07,49,23.90
2014,07,13,07,50,23.90
2014,07,13,07,51,23.90
2014,07,13,07,52,23.90
2014,07,13,07,53,23.90
2014,07,13,07,54,24.00
2014,07,13,07,55,24.00
2014,07,13,07,56,24.00
2014,07,13,07,57,24.10
2014,07,13,07,58,24.10
2014,07,13,07,59,24.10
2014,07,13,08,00,24.20
2014,07,13,08,01,24.20
2014,07,13,08,02,24.20
2014,07,13,08,03,24.10
2014,07,13,08,04,24.10
2014,07,13,08,05,24.00
2014,07,13,08,06,24.00
2014,07,13,08,07,24.00
2014,07,13,08,08,24.10
2014,07,13,08,09,24.20
2014,07,13,08,10,24.20
2014,07,13,08,11,24.30
2014,07,13,08,12,24.30
2014,07,13,08,13,24.30
2014,07,13,08,14,24.20
2014,07,13,08,15,24.20
2014,07,13,08,16,24.20
2014,07,13,08,17,24.10
2014,07,13,08,18,24.10
2014,07,13,08,19,24.10
2014,07,13,08,20,24.00
2014,07,13,08,21,24.00
2014,07,13,08,22,23.90
2014,07,13,08,23,23.90
2014,07,13,08,24,23.80
2014,07,13,08,25,23.80
2014,07,13,08,26,23.70
2014,07,13,08,27,23.70
2014,07,13,08,28,23.70
2014,07,13,08,29,23.70
2014,07,13,08,30,23.70
2014,07,13,08,31,23.80
2014,07,13,08,32,23.80
2014,07,13,08,33,23.80
2014,07,13,08,34,23.90
2014,07,13,08,35,24.00
2014,07,13,08,36,24.10
2014,07,13,08,37,24.20
2014,07,13,08,38,24.30
2014,07,13,08,39,24.40
2014,07,13,08,40,24.50
2014,07,13,08,41,24.60
2014,07,13,08,42,24.60
2014,07,13,08,43,24.60
2014,07,13,08,44,24.60
2014,07,13,08,45,24.60
2014,07,13,08,46,24.60
2014,07,13,08,47,24.70
2014,07,13,08,48,24.70
2014,07,13,08,49,24.80
2014,07,13,08,50,24.90
2014,07,13,08,51,25.00
2014,07,13,08,52,25.10
2014,07,13,08,53,25.20
2014,07,13,08,54,25.30
2014,07,13,08,55,25.40
2014,07,13,08,56,25.60
2014,07,13,08,57,25.70
2014,07,13,08,58,25.70
2014,07,13,08,59,25.80
2014,07,13,09,00,25.90
2014,07,13,09,01,25.90
2014,07,13,09,02,26.00
2014,07,13,09,03,26.10
2014,07,13,09,04,26.00
2014,07,13,09,05,25.90
2014,07,13,09,06,25.90
2014,07,13,09,07,25.90
2014,07,13,09,08,25.70
2014,07,13,09,09,25.60
2014,07,13,09,10,25.60
2014,07,13,09,11,25.50
2014,07,13,09,12,25.50
2014,07,13,09,13,25.60
2014,07,13,09,14,25.70
2014,07,13,09,15,25.70
2014,07,13,09,16,25.80
2014,07,13,09,17,25.90
2014,07,13,09,18,25.90
2014,07,13,09,19,26.10
2014,07,13,09,20,26.20
2014,07,13,09,21,26.30
2014,07,13,09,22,26.30
2014,07,13,09,23,26.20
2014,07,13,09,24,26.00
2014,07,13,09,25,25.90
2014,07,13,09,26,25.90
2014,07,13,09,27,25.90
2014,07,13,09,28,25.90
2014,07,13,09,29,26.00
2014,07,13,09,30,26.10
2014,07,13,09,31,26.00
2014,07,13,09,32,26.00
2014,07,13,09,33,25.90
2014,07,13,09,34,25.90
2014,07,13,09,35,25.80
2014,07,13,09,36,25.70
2014,07,13,09,37,25.70
2014,07,13,09,38,25.70
2014,07,13,09,39,25.70
2014,07,13,09,40,25.70
2014,07,13,09,41,25.80
2014,07,13,09,42,25.90
2014,07,13,09,43,26.00
2014,07,13,09,44,26.10
2014,07,13,09,45,26.10
2014,07,13,09,46,26.10
2014,07,13,09,47,26.10
2014,07,13,09,48,26.20
2014,07,13,09,49,26.30
2014,07,13,09,50,26.30
2014,07,13,09,51,26.40
2014,07,13,09,52,26.50
2014,07,13,09,53,26.50
2014,07,13,09,54,26.60
2014,07,13,09,55,26.70
2014,07,13,09,56,26.80
2014,07,13,09,57,26.80
2014,07,13,09,58,26.90
2014,07,13,09,59,26.90
2014,07,13,10,00,26.90
2014,07,13,10,01,26.80
2014,07,13,10,02,26.70
2014,07,13,10,03,26.80
2014,07,13,10,04,26.80
2014,07,13,10,05,26.90
2014,07,13,10,06,27.00
2014,07,13,10,07,27.00
2014,07,13,10,08,26.90
2014,07,13,10,09,26.90
2014,07,13,10,10,27.00
2014,07,13,10,11,27.10
2014,07,13,10,12,27.20
2014,07,13,10,13,27.30
2014,07,13,10,14,27.30
2014,07,13,10,15,27.20
2014,07,13,10,16,27.30
2014,07,13,10,17,27.30
2014,07,13,10,18,27.40
2014,07,13,10,19,27.30
2014,07,13,10,20,27.30
2014,07,13,10,21,27.40
2014,07,13,10,22,27.40
2014,07,13,10,23,27.50
2014,07,13,10,24,27.50
2014,07,13,10,25,27.40
2014,07,13,10,26,27.30
2014,07,13,10,27,27.20
2014,07,13,10,28,27.10
2014,07,13,10,29,27.10
2014,07,13,10,30,27.10
2014,07,13,10,31,27.10
2014,07,13,10,32,27.10
2014,07,13,10,33,27.10
2014,07,13,10,34,27.10
2014,07,13,10,35,27.20
2014,07,13,10,36,27.20
2014,07,13,10,37,27.20
2014,07,13,10,38,27.30
2014,07,13,10,39,27.40
2014,07,13,10,40,27.50
2014,07,13,10,41,27.60
2014,07,13,10,42,27.70
2014,07,13,10,43,27.80
2014,07,13,10,44,27.90
2014,07,13,10,45,28.00
2014,07,13,10,46,28.10
2014,07,13,10,47,28.10
2014,07,13,10,48,28.10
2014,07,13,10,49,28.20
2014,07,13,10,50,28.30
2014,07,13,10,51,28.20
2014,07,13,10,52,28.10
2014,07,13,10,53,28.10
2014,07,13,10,54,28.20
2014,07,13,10,55,28.20
2014,07,13,10,56,28.20
2014,07,13,10,57,28.20
2014,07,13,10,58,28.10
2014,07,13,10,59,28.00
2014,07,13,11,00,27.90
2014,07,13,11,01,27.90
2014,07,13,11,02,27.80
2014,07,13,11,03,27.80
2014,07,13,11,04,27.80
2014,07,13,11,05,27.80
2014,07,13,11,06,28.00
2014,07,13,11,07,28.20
2014,07,13,11,08,28.20
2014,07,13,11,09,28.30
2014,07,13,11,10,28.40
2014,07,13,11,11,28.40
2014,07,13,11,12,28.30
2014,07,13,11,13,28.20
2014,07,13,11,14,28.10
2014,07,13,11,15,27.90
2014,07,13,11,16,27.70
2014,07,13,11,17,27.50
2014,07,13,11,18,27.50
2014,07,13,11,19,27.50
2014,07,13,11,20,27.50
2014,07,13,11,21,27.40
2014,07,13,11,22,27.40
2014,07,13,11,23,27.30
2014,07,13,11,24,27.10
2014,07,13,11,25,27.00
2014,07,13,11,26,26.90
2014,07,13,11,27,26.90
2014,07,13,11,28,26.90
2014,07,13,11,29,26.80
2014,07,13,11,30,26.70
2014,07,13,11,31,26.80
2014,07,13,11,32,26.80
2014,07,13,11,33,26.90
2014,07,13,11,34,27.00
2014,07,13,11,35,27.00
2014,07,13,11,36,27.10
2014,07,13,11,37,27.10
2014,07,13,11,38,27.10
2014,07,13,11,39,27.20
2014,07,13,11,40,27.20
2014,07,13,11,41,27.20
2014,07,13,11,42,27.10
2014,07,13,11,43,27.10
2014,07,13,11,44,27.10
2014,07,13,11,45,27.20
2014,07,13,11,46,27.20
2014,07,13,11,47,27.20
2014,07,13,11,48,27.40
2014,07,13,11,49,27.60
2014,07,13,11,50,27.70
2014,07,13,11,51,27.80
2014,07,13,11,52,27.80
2014,07,13,11,53,27.90
2014,07,13,11,54,27.90
2014,07,13,11,55,28.00
2014,07,13,11,56,28.00
2014,07,13,11,57,28.00
2014,07,13,11,58,28.20
2014,07,13,11,59,28.30
2014,07,13,12,00,28.50
2014,07,13,12,01,28.60
2014,07,13,12,02,28.60
2014,07,13,12,03,28.40
2014,07,13,12,04,28.30
2014,07,13,12,05,28.30
2014,07,13,12,06,28.30
2014,07,13,12,07,28.30
2014,07,13,12,08,28.30
2014,07,13,12,09,28.30
2014,07,13,12,10,28.40
2014,07,13,12,11,28.40
2014,07,13,12,12,28.30
2014,07,13,12,13,28.30
2014,07,13,12,14,28.20
2014,07,13,12,15,28.20
2014,07,13,12,16,28.20
2014,07,13,12,17,28.20
2014,07,13,12,18,28.20
2014,07,13,12,19,28.20
2014,07,13,12,20,28.20
2014,07,13,12,21,28.30
2014,07,13,12,22,28.40
2014,07,13,12,23,28.40
2014,07,13,12,24,28.50
2014,07,13,12,25,28.60
2014,07,13,12,26,28.60
2014,07,13,12,27,28.70
2014,07,13,12,28,28.70
2014,07,13,12,29,28.70
2014,07,13,12,30,28.80
2014,07,13,12,31,28.80
2014,07,13,12,32,28.80
2014,07,13,12,33,28.90
2014,07,13,12,34,29.00
2014,07,13,12,35,29.10
2014,07,13,12,36,29.00
2014,07,13,12,37,28.80
2014,07,13,12,38,28.70
2014,07,13,12,39,28.70
2014,07,13,12,40,28.60
2014,07,13,12,41,28.50
2014,07,13,12,42,28.40
2014,07,13,12,43,28.20
2014,07,13,12,44,28.20
2014,07,13,12,45,28.10
2014,07,13,12,46,27.90
2014,07,13,12,47,27.80
2014,07,13,12,48,27.80
2014,07,13,12,49,27.70
2014,07,13,12,50,27.60
2014,07,13,12,51,27.50
2014,07,13,12,52,27.40
2014,07,13,12,53,27.40
2014,07,13,12,54,27.40
2014,07,13,12,55,27.40
2014,07,13,12,56,27.40
2014,07,13,12,57,27.30
2014,07,13,12,58,27.30
2014,07,13,12,59,27.20
2014,07,13,13,00,27.20
2014,07,13,13,01,27.20
2014,07,13,13,02,27.10
2014,07,13,13,03,27.10
2014,07,13,13,04,27.20
2014,07,13,13,05,27.10
2014,07,13,13,06,27.10
2014,07,13,13,07,27.00
2014,07,13,13,08,26.90
2014,07,13,13,09,26.90
2014,07,13,13,10,26.90
2014,07,13,13,11,26.90
2014,07,13,13,12,26.90
2014,07,13,13,13,27.00
2014,07,13,13,14,27.10
2014,07,13,13,15,27.10
2014,07,13,13,16,27.10
2014,07,13,13,17,27.10
2014,07,13,13,18,27.20
2014,07,13,13,19,27.30
2014,07,13,13,20,27.40
2014,07,13,13,21,27.50
2014,07,13,13,22,27.60
2014,07,13,13,23,27.80
2014,07,13,13,24,27.80
2014,07,13,13,25,27.80
2014,07,13,13,26,27.90
2014,07,13,13,27,28.00
2014,07,13,13,28,28.20
2014,07,13,13,29,28.30
2014,07,13,13,30,28.50
2014,07,13,13,31,28.60
2014,07,13,13,32,28.70
2014,07,13,13,33,28.80
2014,07,13,13,34,28.80
2014,07,13,13,35,28.80
2014,07,13,13,36,28.70
2014,07,13,13,37,28.70
2014,07,13,13,38,28.60
2014,07,13,13,39,28.60
2014,07,13,13,40,28.70
2014,07,13,13,41,28.90
2014,07,13,13,42,29.10
2014,07,13,13,43,29.20
2014,07,13,13,44,29.30
2014,07,13,13,45,29.40
2014,07,13,13,46,29.50
2014,07,13,13,47,29.50
2014,07,13,13,48,29.50
2014,07,13,13,49,29.40
2014,07,13,13,50,29.30
2014,07,13,13,51,29.30
2014,07,13,13,52,29.30
2014,07,13,13,53,29.40
2014,07,13,13,54,29.40
2014,07,13,13,55,29.40
2014,07,13,13,56,29.50
2014,07,13,13,57,29.50
2014,07,13,13,58,29.40
2014,07,13,13,59,29.40
2014,07,13,14,00,29.40
2014,07,13,14,01,29.50
2014,07,13,14,02,29.70
2014,07,13,14,03,29.80
2014,07,13,14,04,29.90
2014,07,13,14,05,30.00
2014,07,13,14,06,30.10
2014,07,13,14,07,30.20
2014,07,13,14,08,30.20
2014,07,13,14,09,30.20
2014,07,13,14,10,30.20
2014,07,13,14,11,30.20
2014,07,13,14,12,30.10
2014,07,13,14,13,30.20
2014,07,13,14,14,30.20
2014,07,13,14,15,30.30
2014,07,13,14,16,30.20
2014,07,13,14,17,30.20
2014,07,13,14,18,30.20
2014,07,13,14,19,30.20
2014,07,13,14,20,30.30
2014,07,13,14,21,30.40
2014,07,13,14,22,30.40
2014,07,13,14,23,30.50
2014,07,13,14,24,30.60
2014,07,13,14,25,30.50
2014,07,13,14,26,30.40
2014,07,13,14,27,30.40
2014,07,13,14,28,30.60
2014,07,13,14,29,30.60
2014,07,13,14,30,30.70
2014,07,13,14,31,30.80
2014,07,13,14,32,30.90
2014,07,13,14,33,30.90
2014,07,13,14,34,30.80
2014,07,13,14,35,30.70
2014,07,13,14,36,30.70
2014,07,13,14,37,30.70
2014,07,13,14,38,30.80
2014,07,13,14,39,30.60
2014,07,13,14,40,30.30
2014,07,13,14,41,30.20
2014,07,13,14,42,30.10
2014,07,13,14,43,30.00
2014,07,13,14,44,30.00
2014,07,13,14,45,30.00
2014,07,13,14,46,30.00
2014,07,13,14,47,30.10
2014,07,13,14,48,30.20
2014,07,13,14,49,30.20
2014,07,13,14,50,30.30
2014,07,13,14,51,30.30
2014,07,13,14,52,30.40
2014,07,13,14,53,30.40
2014,07,13,14,54,30.40
2014,07,13,14,55,30.40
2014,07,13,14,56,30.40
2014,07,13,14,57,30.40
2014,07,13,14,58,30.40
2014,07,13,14,59,30.50
2014,07,13,15,00,30.60
2014,07,13,15,01,30.60
2014,07,13,15,02,30.60
2014,07,13,15,03,30.60
2014,07,13,15,04,30.70
2014,07,13,15,05,30.70
2014,07,13,15,06,30.80
2014,07,13,15,07,30.90
2014,07,13,15,08,31.00
2014,07,13,15,09,31.10
2014,07,13,15,10,31.20
2014,07,13,15,11,31.40
2014,07,13,15,12,31.40
2014,07,13,15,13,31.50
2014,07,13,15,14,31.60
2014,07,13,15,15,31.60
2014,07,13,15,16,31.60
2014,07,13,15,17,31.70
2014,07,13,15,18,31.70
2014,07,13,15,19,31.70
2014,07,13,15,20,31.70
2014,07,13,15,21,31.70
2014,07,13,15,22,31.70
2014,07,13,15,23,31.70
2014,07,13,15,24,31.70
2014,07,13,15,25,31.60
2014,07,13,15,26,31.60
2014,07,13,15,27,31.60
2014,07,13,15,28,31.70
2014,07,13,15,29,31.70
2014,07,13,15,30,31.70
2014,07,13,15,31,31.70
2014,07,13,15,32,31.80
2014,07,13,15,33,31.80
2014,07,13,15,34,31.90
2014,07,13,15,35,31.90
2014,07,13,15,36,32.00
2014,07,13,15,37,32.10
2014,07,13,15,38,32.10
2014,07,13,15,39,32.20
2014,07,13,15,40,32.20
2014,07,13,15,41,32.20
2014,07,13,15,42,32.10
2014,07,13,15,43,32.10
2014,07,13,15,44,32.10
2014,07,13,15,45,32.10
2014,07,13,15,46,32.10
2014,07,13,15,47,32.10
2014,07,13,15,48,32.00
2014,07,13,15,49,31.90
2014,07,13,15,50,31.80
2014,07,13,15,51,31.70
2014,07,13,15,52,31.70
2014,07,13,15,53,31.70
2014,07,13,15,54,31.70
2014,07,13,15,55,31.70
2014,07,13,15,56,31.60
2014,07,13,15,57,31.60
2014,07,13,15,58,31.60
2014,07,13,15,59,31.60
2014,07,13,16,00,31.70
2014,07,13,16,01,31.70
2014,07,13,16,02,31.70
2014,07,13,16,03,31.70
2014,07,13,16,04,31.80
2014,07,13,16,05,31.80
2014,07,13,16,06,31.80
2014,07,13,16,07,31.90
2014,07,13,16,08,31.90
2014,07,13,16,09,31.90
2014,07,13,16,10,32.00
2014,07,13,16,11,32.00
2014,07,13,16,12,32.10
2014,07,13,16,13,32.20
2014,07,13,16,14,32.40
2014,07,13,16,15,32.40
2014,07,13,16,16,32.50
2014,07,13,16,17,32.60
2014,07,13,16,18,32.60
2014,07,13,16,19,32.60
2014,07,13,16,20,32.50
2014,07,13,16,21,32.40
2014,07,13,16,22,32.40
2014,07,13,16,23,32.30
2014,07,13,16,24,32.30
2014,07,13,16,25,32.40
2014,07,13,16,26,32.40
2014,07,13,16,27,32.40
2014,07,13,16,28,32.50
2014,07,13,16,29,32.50
2014,07,13,16,30,32.40
2014,07,13,16,31,32.30
2014,07,13,16,32,32.30
2014,07,13,16,33,32.30
2014,07,13,16,34,32.50
2014,07,13,16,35,32.60
2014,07,13,16,36,32.60
2014,07,13,16,37,32.70
2014,07,13,16,38,32.60
2014,07,13,16,39,32.70
2014,07,13,16,40,32.70
2014,07,13,16,41,32.80
2014,07,13,16,42,32.80
2014,07,13,16,43,32.90
2014,07,13,16,44,33.10
2014,07,13,16,45,33.20
2014,07,13,16,46,33.30
2014,07,13,16,47,33.30
2014,07,13,16,48,33.40
2014,07,13,16,49,33.50
2014,07,13,16,50,33.60
2014,07,13,16,51,33.70
2014,07,13,16,52,33.70
2014,07,13,16,53,33.80
2014,07,13,16,54,33.80
2014,07,13,16,55,33.80
2014,07,13,16,56,33.80
2014,07,13,16,57,33.80
2014,07,13,16,58,33.80
2014,07,13,16,59,33.90
2014,07,13,17,00,33.90
2014,07,13,17,01,34.00
2014,07,13,17,02,34.10
2014,07,13,17,03,34.10
2014,07,13,17,04,34.20
2014,07,13,17,05,34.30
2014,07,13,17,06,34.40
2014,07,13,17,07,34.40
2014,07,13,17,08,34.40
2014,07,13,17,09,34.40
2014,07,13,17,10,34.40
2014,07,13,17,11,34.40
2014,07,13,17,12,34.30
2014,07,13,17,13,34.40
2014,07,13,17,14,34.40
2014,07,13,17,15,34.40
2014,07,13,17,16,34.40
2014,07,13,17,17,34.40
2014,07,13,17,18,34.40
2014,07,13,17,19,34.40